Location: Bonaustraße
(48.4603°N, 11.9280°E)
Time: 18:07:16
(UTC+02:00)

Tiangong - Pass Details

Date: 29 September 2021
Orbit: 382 x 385 km, 41.5° (Epoch: 18 October)

Event Time Altitude Azimuth Distance (km) Brightness Sun altitude
Exits shadow 06:15:15 - 223° (SW) 1,483 3.6 -9.7°
Reaches altitude 10° 06:15:32 10° 220° (SW) 1,393 3.5 -9.7°
Maximum altitude 06:17:55 20° 170° (S) 951 3.1 -9.3°
Drops below altitude 10° 06:20:19 10° 121° (ESE) 1,394 4.8 -8.9°
Sets 06:22:43 0° 103° (ESE) 2,247 6.6 -8.5°
